Probability
0 0 0 0 0 0 0 0 0 0 0 0 0 0 0 0 0 0 0 2 6 9 8 9 10 9 7 7 10 10 6 2 2 2 1 1 2 2 2 1 1 1 1 2 4 6 8 8 7
0 0 0 0 0 0 0 0 0 0 0 0 0 0 0 0 0 0 0 3 7 9 8 9 10 9 8 7 8 9 6 3 2 2 2 2 3 3 3 2 2 2 2 3 4 7 9 8 6
0 0 0 0 0 0 0 0 0 0 0 0 0 0 1 1 0 0 2 6 9 8 8 8 10 10 8 7 8 9 7 3 2 2 3 3 3 3 3 3 3 3 3 3 4 7 8 7 5
0 0 0 0 0 0 0 0 0 0 0 0 0 1 2 2 1 1 4 9 10 8 7 8 9 9 8 8 9 8 6 4 3 2 3 3 3 3 3 3 3 3 3 3 4 5 7 6 4
0 0 0 0 0 0 0 0 1 1 1 1 0 1 2 3 2 3 5 8 9 9 7 7 9 10 9 10 9 7 5 4 4 3 3 4 4 3 3 3 3 3 3 3 3 4 6 6 5
0 0 0 0 0 0 0 0 0 1 1 1 0 1 2 2 2 4 5 6 7 8 7 6 8 10 10 10 9 7 6 6 7 5 4 4 4 3 3 3 3 3 3 3 3 4 5 5 5
0 0 0 0 0 0 0 0 0 0 1 1 0 1 2 2 2 4 5 5 6 8 6 5 6 8 9 10 10 9 8 8 8 7 4 2 2 3 4 3 3 3 3 3 3 3 3 3 3
0 0 0 0 0 0 0 0 0 0 1 2 1 1 2 4 5 5 6 6 6 7 7 6 5 5 6 8 9 9 9 8 6 5 4 2 2 3 4 4 4 3 3 3 4 3 3 1 1
0 0 0 0 0 0 0 0 0 1 3 3 2 1 4 9 10 9 8 7 7 6 7 7 7 6 6 7 7 7 7 6 5 4 4 4 3 3 4 5 5 3 2 3 4 3 2 1 1
0 0 0 0 0 0 1 1 1 2 4 4 3 4 9 13 13 11 9 8 7 6 6 7 8 8 8 6 6 5 5 4 4 4 4 5 3 2 3 5 4 2 0 1 3 3 1 1 0
0 0 0 0 0 1 2 2 2 2 2 3 3 7 13 13 10 9 8 7 5 5 6 6 7 8 8 5 5 4 4 3 3 3 4 3 2 1 1 3 2 1 0 0 1 1 1 0 0
0 0 0 0 1 2 3 3 1 1 1 2 5 10 14 12 9 8 8 6 5 4 5 5 6 7 7 5 5 5 4 3 3 3 3 2 1 0 0 1 1 0 0 0 0 0 0 0 0
0 0 1 1 2 3 3 2 1 1 3 5 7 11 14 13 10 7 7 8 7 5 5 6 5 5 6 6 6 5 3 2 2 3 3 2 1 0 0 0 0 0 0 0 0 0 0 0 0
0 1 2 2 2 3 2 1 0 2 6 9 9 11 15 14 10 7 7 9 8 7 6 6 6 6 6 6 6 5 3 1 1 1 2 1 0 0 0 0 0 0 0 0 0 0 0 0 0
1 2 3 3 1 1 1 1 0 3 9 11 9 9 12 12 9 7 7 8 7 7 7 7 7 6 5 6 7 6 4 2 1 0 0 0 0 0 0 0 0 0 0 0 0 0 0 0 0
0 1 2 2 1 1 1 0 1 4 8 9 6 6 8 9 7 6 6 7 6 6 6 7 7 5 5 7 8 7 5 3 2 1 0 0 0 0 0 0 0 0 0 0 0 0 0 0 0
0 0 1 2 2 2 1 0 1 4 5 4 4 5 7 7 7 7 8 8 7 7 6 7 7 6 7 8 7 6 5 4 3 1 0 0 0 0 0 0 0 0 0 0 0 0 0 0 0
0 0 0 1 1 1 1 0 1 3 3 3 5 7 9 9 8 9 10 12 11 9 8 8 9 10 12 11 9 7 6 5 4 3 2 1 1 1 1 1 1 1 1 0 0 0 0 0 0
0 0 0 0 0 1 1 1 1 2 3 6 8 9 10 9 9 10 12 14 14 12 11 12 14 16 17 15 12 10 8 7 7 7 5 3 3 4 4 4 3 4 4 2 1 1 0 0 0
0 0 0 0 0 1 2 2 1 1 2 5 8 9 10 10 10 11 12 14 15 14 14 16 20 20 18 16 14 12 9 8 9 10 8 7 5 5 6 6 6 6 6 5 3 2 1 0 0
0 0 0 0 0 1 1 1 1 0 0 2 6 9 10 10 11 10 11 12 13 14 15 19 22 22 19 17 15 13 10 9 9 10 10 8 6 6 6 6 6 6 6 6 4 3 2 1 1
0 0 0 0 0 0 0 0 0 0 0 1 4 7 10 11 11 10 11 12 12 14 16 18 21 22 22 20 17 15 14 13 10 9 10 10 8 7 7 6 6 6 6 5 4 3 3 3 2
0 0 0 0 0 0 0 0 0 0 0 1 3 6 10 12 12 13 13 14 15 16 16 17 19 22 23 21 19 17 16 15 13 10 10 11 11 9 7 7 6 6 5 4 3 3 3 3 3
0 0 0 0 0 0 0 0 0 0 0 1 3 6 9 12 16 18 18 19 21 20 18 17 17 20 21 20 19 18 16 15 13 11 11 11 12 10 9 7 6 5 4 3 3 3 3 3 3
0 0 0 0 0 0 0 0 0 0 0 1 3 6 9 14 19 21 21 24 26 25 22 19 18 19 19 18 17 16 15 14 12 10 10 11 12 11 9 8 6 4 3 3 3 3 3 3 3
0 0 0 0 0 0 0 0 0 0 0 1 3 5 9 15 19 21 23 27 30 30 26 24 22 22 19 17 14 12 11 11 10 10 10 11 12 11 9 7 6 4 3 3 3 3 3 4 4
0 0 0 0 0 0 0 0 0 0 1 2 3 6 10 14 15 17 20 25 29 30 28 25 24 21 19 16 12 9 8 9 9 10 10 11 12 11 9 8 7 5 4 4 4 4 4 5 6
0 0 0 0 0 0 0 0 0 0 1 3 4 6 9 10 12 14 16 20 24 25 23 21 19 18 16 15 12 9 7 8 9 10 10 11 12 11 9 9 9 8 6 6 6 6 6 6 6
0 0 0 0 0 0 0 0 0 0 1 3 5 6 7 8 10 12 15 17 19 19 19 18 17 15 14 13 11 9 8 9 10 11 11 10 10 10 10 11 11 9 8 7 7 7 7 7 6
0 0 0 0 0 0 0 0 0 0 1 3 6 6 6 8 10 11 14 18 19 18 18 19 17 16 14 12 9 8 9 11 12 12 12 11 9 9 10 11 12 10 9 8 7 8 8 7 6
Wind_Speed
3 3 2 2 5 5 2 2 1 2 1 1 2 3 3 2 2 2 2 8 9 9 7 9 11 9 9 8 8 8 8 7 7 7 7 7 7 7 7 7 6 6 7 8 9 9 10 10 10
3 3 2 4 6 3 3 2 1 1 1 2 2 2 3 2 2 4 4 6 10 9 6 7 11 10 9 8 8 7 7 7 7 7 7 6 6 6 6 6 6 6 7 7 8 9 9 8 9
2 1 3 5 4 3 2 2 1 0 2 1 2 2 2 2 4 5 5 10 9 8 6 7 12 10 9 8 8 7 7 6 6 6 6 6 6 5 5 5 5 5 6 7 7 8 8 8 8
2 3 5 5 1 3 3 3 2 1 1 2 2 2 2 2 4 5 9 11 10 7 6 7 12 10 9 8 8 7 6 6 5 5 5 5 5 4 4 4 5 5 5 6 7 7 7 7 7
3 4 5 3 3 3 3 3 3 2 1 1 2 3 2 3 6 10 11 11 10 6 5 6 11 10 9 8 8 7 6 5 5 4 4 4 3 3 3 4 4 4 5 5 5 5 5 5 6
4 5 4 1 4 3 2 3 2 2 2 1 2 3 1 2 7 9 10 8 8 7 5 4 9 10 9 8 7 6 6 5 4 3 3 3 2 2 2 2 3 4 4 4 4 4 4 4 6
4 4 2 2 3 3 2 1 2 2 2 2 3 3 1 2 5 9 8 7 6 6 5 3 4 6 8 8 7 6 5 4 4 3 3 2 2 1 1 2 4 4 3 3 3 3 3 4 5
4 5 1 1 2 3 1 0 1 2 2 2 3 5 4 5 8 8 7 6 5 4 4 3 3 2 2 3 6 6 5 4 3 2 2 2 1 1 2 2 2 3 3 3 3 3 4 5 5
4 5 2 4 4 4 1 0 0 1 3 1 1 3 5 12 12 9 7 5 4 5 3 3 3 2 2 2 4 4 5 4 3 1 1 1 2 2 2 2 2 2 3 3 3 3 4 5 5
4 3 7 5 4 3 2 2 2 2 2 0 1 3 10 13 13 11 10 9 8 8 6 4 4 3 2 2 2 1 1 1 1 1 1 1 1 2 2 2 3 2 2 3 3 3 4 3 2
4 6 5 4 4 3 3 3 2 5 3 6 6 9 12 12 11 11 10 9 9 7 6 5 4 4 3 2 2 1 1 1 1 0 1 1 1 2 2 2 2 2 2 2 2 2 2 2 2
3 5 4 4 2 2 3 2 2 5 6 5 8 13 14 14 13 13 12 9 6 6 7 6 5 4 4 2 2 1 1 1 1 0 1 1 1 1 1 1 2 1 1 1 1 1 2 2 2
3 4 4 4 4 3 3 3 3 4 3 3 8 11 14 14 12 10 8 7 7 7 7 6 5 5 4 3 2 2 1 1 1 1 0 1 1 0 1 1 1 1 1 1 1 1 2 2 2
3 3 4 4 2 2 3 3 1 5 3 6 9 11 12 12 11 8 7 8 8 8 7 6 5 5 4 3 2 2 2 2 1 1 1 1 1 1 0 1 1 1 1 1 1 1 2 1 1
1 3 5 3 1 1 2 2 4 5 5 6 8 9 9 9 9 10 11 10 9 8 7 6 6 5 5 4 3 2 2 2 1 1 1 1 1 1 1 1 0 0 1 1 2 2 2 2 2
2 3 3 5 1 1 4 4 5 3 7 6 6 7 7 7 8 9 9 8 7 7 6 6 6 6 5 4 3 2 2 2 1 1 1 1 1 2 1 1 0 1 1 1 2 2 2 2 1
4 0 2 5 2 1 2 5 5 2 5 6 6 7 7 6 6 7 7 8 8 8 7 7 6 6 5 4 3 2 2 1 1 1 1 1 1 2 2 1 1 1 1 2 2 2 2 1 1
3 2 2 4 3 1 1 5 6 2 5 5 5 5 6 7 9 7 6 6 6 6 6 6 5 5 5 4 3 2 1 1 0 1 1 1 1 2 2 1 1 2 2 2 2 2 2 1 1
3 2 4 6 3 1 4 6 6 3 3 4 4 5 6 7 5 4 5 6 6 6 6 6 6 5 5 3 3 2 2 1 1 1 1 1 1 2 2 1 2 2 2 2 2 2 2 1 1
2 2 4 5 2 1 2 5 4 2 5 6 6 6 6 4 3 4 5 5 6 7 7 7 7 7 6 4 3 2 2 1 1 0 0 1 1 1 2 2 2 2 2 2 2 2 2 1 1
3 4 5 4 3 3 1 6 4 3 2 1 3 4 5 7 6 6 6 6 6 7 7 7 7 7 6 5 3 3 2 1 1 0 0 1 1 1 1 2 2 2 3 2 2 3 3 2 1
5 6 5 3 0 3 1 3 6 3 3 3 4 4 5 5 5 5 5 6 7 7 6 6 6 6 6 6 5 5 4 3 2 1 1 1 1 1 1 1 2 2 2 2 2 2 2 2 1
6 2 3 2 3 0 1 2 8 2 3 6 5 6 6 5 6 6 6 6 5 5 6 5 5 5 5 5 6 5 4 3 1 1 1 0 0 1 1 1 2 2 2 2 2 2 2 2 2
3 5 5 5 5 1 3 4 6 4 5 5 4 5 5 5 5 4 4 4 4 4 5 5 6 5 5 5 5 6 5 4 3 2 2 1 1 1 1 1 1 2 2 2 2 2 2 2 2
4 6 4 4 3 5 3 3 8 7 5 5 6 5 4 4 4 4 5 5 5 6 5 5 6 5 4 5 5 5 5 5 5 4 3 2 1 1 1 1 1 1 1 2 2 2 2 2 2
4 8 8 5 5 5 1 5 7 5 4 3 3 3 2 3 4 5 5 5 5 6 5 5 5 5 4 5 4 4 4 3 3 3 3 3 2 2 2 2 2 1 1 2 2 1 1 1 1
5 4 5 7 2 1 4 5 7 2 3 2 1 0 1 2 3 4 4 4 5 6 5 5 5 5 5 5 4 3 3 3 3 3 2 2 2 2 2 2 2 2 2 2 2 1 1 1 1
5 7 6 6 5 3 4 4 5 4 4 3 2 1 1 1 2 3 3 4 4 5 5 4 4 5 4 4 3 3 3 3 3 3 2 2 2 2 2 2 2 1 1 2 2 1 1 1 0
3 4 5 5 5 6 3 7 6 6 5 5 4 3 3 3 2 3 3 3 4 4 4 4 4 3 4 4 3 3 2 2 3 3 2 2 2 2 2 2 2 2 1 1 2 1 1 1 0
4 6 7 5 4 4 4 8 5 4 4 4 3 3 2 2 2 3 3 4 4 4 4 3 3 3 4 4 3 3 3 3 2 2 1 2 2 2 2 2 2 2 2 2 2 2 1 1 1
Wind_Direction
155 125 121 85 55 48 10 302 273 344 19 29 89 111 122 125 176 185 134 141 138 143 154 159 156 152 146 139 131 125 119 114 110 106 104 101 98 95 95 97 97 95 94 97 107 114 116 120 124
135 144 87 62 74 52 317 301 321 282 159 111 74 87 89 90 103 117 131 145 140 143 150 157 158 156 150 143 137 131 124 119 114 110 107 105 102 98 97 97 98 98 99 100 108 113 117 122 125
165 155 81 69 87 153 261 281 259 50 132 78 73 58 95 139 142 151 155 143 136 143 151 166 160 158 153 149 144 139 131 125 120 115 111 109 104 102 100 97 97 100 103 104 105 111 117 121 124
115 50 52 66 66 223 224 241 210 158 20 33 98 75 67 81 151 147 139 141 140 149 157 171 161 160 157 154 152 148 140 133 126 121 118 116 113 109 106 102 100 101 105 108 109 111 116 121 126
64 73 54 33 294 264 245 236 198 174 171 55 91 97 44 20 103 125 138 145 147 152 158 171 165 164 163 160 157 154 146 138 129 123 121 119 115 113 111 112 112 110 110 112 112 113 112 122 121
57 64 72 329 293 288 256 216 169 161 156 129 112 106 49 91 121 136 140 144 149 151 155 168 170 168 168 165 161 159 154 147 139 128 119 116 107 98 104 130 133 121 118 115 114 117 118 122 124
101 95 139 228 284 298 266 180 149 165 169 186 142 112 108 134 142 137 134 133 140 147 153 166 172 176 178 175 173 170 166 157 148 137 124 109 93 69 58 110 130 124 126 126 120 119 121 119 121
121 102 111 243 250 271 259 120 196 154 181 142 133 146 184 177 137 124 118 121 136 150 161 170 173 169 168 178 182 177 169 162 156 147 129 97 60 25 46 84 120 127 129 133 129 126 126 121 120
93 81 211 225 212 252 236 17 283 132 115 113 156 175 165 137 131 127 125 130 157 173 177 176 177 169 162 171 183 176 173 173 166 162 149 73 15 7 19 55 93 119 126 131 129 127 123 119 119
99 148 225 220 205 231 267 236 192 110 98 344 48 93 126 138 146 152 161 170 180 187 188 186 182 176 166 176 157 137 150 140 112 59 33 38 27 12 30 38 70 88 111 120 118 121 113 102 94
154 195 233 244 226 223 244 262 187 139 201 210 188 158 148 152 160 168 178 182 187 183 184 185 185 177 171 171 143 124 113 111 110 91 47 58 43 26 19 14 22 30 49 50 62 77 77 89 98
183 236 232 257 228 219 211 208 189 191 216 206 177 160 161 168 175 181 184 185 178 177 186 181 179 174 176 167 158 143 143 155 162 147 100 88 60 41 24 18 17 32 40 52 62 77 90 101 109
218 257 254 255 273 229 210 214 213 240 239 149 149 159 173 179 184 189 181 173 175 186 189 183 177 176 172 164 169 161 169 174 173 162 152 134 123 85 57 23 26 31 45 71 79 80 99 105 110
241 264 291 288 275 230 195 246 216 250 166 145 158 173 181 185 183 179 179 178 183 190 189 178 180 180 171 170 170 169 171 171 166 178 183 153 147 134 84 52 43 33 41 89 108 106 95 89 101
302 331 331 318 312 228 133 305 241 223 150 156 171 180 183 189 184 188 189 188 187 184 181 177 178 174 175 175 175 166 162 159 170 190 187 172 153 143 125 104 77 50 71 95 100 86 86 91 89
42 41 322 298 307 258 140 251 263 188 152 171 185 183 186 195 195 197 189 184 181 173 171 179 181 174 176 171 165 152 151 154 170 187 178 177 155 145 140 138 137 102 100 102 104 94 89 79 77
32 41 260 296 297 102 136 251 277 196 160 183 193 185 187 193 203 202 189 182 178 174 169 174 177 170 170 162 150 141 139 149 170 188 198 203 173 155 153 160 148 118 110 107 122 105 112 110 86
228 231 261 265 295 68 236 264 285 237 181 192 196 191 191 199 208 197 185 172 167 164 165 171 169 160 152 144 129 119 117 124 137 193 221 198 178 154 152 153 139 130 123 113 113 117 101 113 108
184 204 258 262 269 245 257 271 282 253 197 198 199 199 204 215 211 180 175 164 156 157 163 169 166 164 155 155 158 160 180 181 191 198 202 188 173 156 153 152 141 138 141 148 143 129 118 112 105
195 246 269 288 300 206 271 287 286 237 214 206 201 205 210 213 197 186 177 170 172 174 175 175 174 170 171 168 161 160 148 167 185 181 153 180 182 170 161 148 148 146 139 140 150 136 133 138 132
220 211 237 253 332 11 9 319 312 302 309 270 220 203 208 205 201 196 187 185 177 179 182 186 185 178 173 160 139 112 91 58 78 112 232 240 194 177 152 153 152 152 151 163 177 165 154 162 159
242 230 218 226 154 291 78 278 291 294 304 273 251 221 218 215 199 198 189 187 188 186 179 180 178 177 171 160 158 160 169 180 197 196 201 202 186 207 175 150 152 156 159 168 189 164 155 151 166
215 212 180 183 164 284 339 177 281 317 281 268 251 235 227 212 197 199 196 191 185 173 170 172 166 170 169 169 168 165 172 178 161 152 164 190 222 227 196 158 152 166 170 171 169 157 163 167 172
169 72 57 50 80 228 237 175 270 249 239 268 264 246 225 208 195 188 176 162 159 157 159 162 164 171 167 168 168 171 173 169 167 178 192 210 230 242 218 161 159 168 174 172 172 170 171 181 174
103 91 37 4 16 248 248 184 245 251 247 249 258 245 219 195 177 167 164 166 165 167 167 165 165 169 165 164 170 177 177 173 187 195 195 190 207 228 229 183 167 170 178 160 153 155 168 177 173
170 142 157 188 214 266 277 225 250 261 269 262 252 230 196 176 174 171 173 170 167 166 161 160 162 162 160 161 172 177 177 175 188 194 189 190 201 213 195 173 167 164 160 156 149 146 169 156 180
141 172 164 137 161 232 274 279 298 290 328 324 313 163 192 192 176 163 157 156 160 160 161 165 159 160 166 163 166 170 174 180 184 179 179 190 193 193 179 162 154 156 156 150 142 139 165 155 189
138 144 105 124 150 224 276 265 252 268 272 284 276 228 221 190 156 150 153 157 158 154 150 149 157 164 159 154 169 170 173 179 176 171 186 192 181 174 161 156 154 157 153 147 138 143 135 124 256
102 104 110 123 153 161 224 263 231 222 225 227 235 227 203 183 176 165 157 150 137 131 135 142 146 148 148 154 157 151 153 159 165 175 193 189 173 169 168 162 161 166 167 162 150 156 148 161 223
152 158 144 150 202 174 178 260 273 230 232 215 224 221 199 165 151 143 137 128 124 127 132 141 146 156 154 151 146 144 142 139 142 161 184 172 167 176 175 162 158 169 173 170 166 175 160 163 162